FW9204 Weather Reports


Display with metric or nautical units.
time (UTC)temp
F
wind
direction
speed
MPH
gust
MPH
rain 1hr
in
rain 24hr
in
rain mn
in
humidity
%
barometer
mb
20260906112043 68 0 0.0 0.0 0.00 0.20 0.08 98 1017.7
20260906111555 68 0 0.0 0.0 0.00 0.20 0.08 98 1017.8
20260906111041 68 0 0.0 0.0 0.00 0.20 0.08 98 1017.5
20260906110542 68 0 0.0 0.0 0.00 0.20 0.08 98 1017.6
20260906110104 68 0 0.0 0.0 0.00 0.20 0.08 98 1017.6
20260906105541 69 0 0.0 0.0 0.00 0.20 0.08 98 1017.6
20260906105042 69 0 0.0 0.0 0.00 0.20 0.08 98 1017.5
20260906104559 69 0 0.0 0.0 0.00 0.20 0.08 98 1017.5
20260906104042 69 0 0.0 0.0 0.00 0.20 0.08 98 1017.4
20260906103542 69 0 0.0 0.0 0.00 0.20 0.08 98 1017.4
20260906103059 69 0 0.0 0.0 0.00 0.20 0.08 97 1017.4
20260906102545 69 0 0.0 0.0 0.00 0.20 0.08 97 1017.5
20260906102042 69 0 0.0 0.0 0.00 0.20 0.08 97 1017.4
20260906101559 69 0 0.0 0.0 0.00 0.20 0.08 97 1017.4
20260906101041 69 0 0.0 0.0 0.00 0.20 0.08 98 1017.3
20260906100545 70 0 0.0 0.0 0.00 0.20 0.08 98 1017.3
20260906100056 70 0 0.0 0.0 0.00 0.20 0.08 97 1017.4
20260906095541 70 0 0.0 1.0 0.00 0.20 0.08 98 1017.4
20260906095042 70 0 0.0 1.0 0.00 0.20 0.08 98 1017.3
20260906094558 70 0 0.0 1.0 0.00 0.20 0.08 98 1017.3
20260906094042 70 0 0.0 1.0 0.00 0.20 0.08 98 1017.3
20260906093542 70 0 0.0 1.0 0.00 0.20 0.08 98 1017.4
20260906093100 70 0 0.0 1.0 0.00 0.20 0.08 98 1017.4
20260906092542 70 119 0.0 1.0 0.00 0.20 0.08 98 1017.3
20260906092042 70 0 0.0 2.0 0.00 0.20 0.08 98 1017.4
20260906091554 70 0 0.0 2.0 0.00 0.20 0.08 98 1017.5
20260906091042 70 0 0.0 0.0 0.00 0.20 0.08 98 1017.5
20260906090543 70 0 0.0 0.0 0.00 0.20 0.08 98 1017.5
20260906090105 70 0 0.0 0.0 0.00 0.20 0.08 98 1017.6
20260906085541 71 0 0.0 0.0 0.00 0.20 0.08 98 1017.5
20260906085041 71 0 0.0 0.0 0.00 0.20 0.08 98 1017.4
20260906084602 71 0 0.0 0.0 0.00 0.20 0.08 98 1017.5
20260906084043 71 0 0.0 0.0 0.00 0.20 0.08 98 1017.5
20260906083542 71 0 0.0 0.0 0.00 0.20 0.08 98 1017.5
20260906083059 71 0 0.0 0.0 0.00 0.20 0.08 98 1017.5
20260906082541 71 0 0.0 0.0 0.00 0.20 0.08 98 1017.4
20260906082042 71 0 0.0 0.0 0.00 0.20 0.08 98 1017.3
20260906081559 71 0 0.0 0.0 0.00 0.20 0.08 98 1017.4
20260906081041 71 0 0.0 0.0 0.00 0.20 0.08 98 1017.3
20260906080542 71 0 0.0 0.0 0.00 0.20 0.08 98 1017.4
20260906080057 71 0 0.0 1.0 0.00 0.20 0.08 98 1017.3
20260906075541 71 0 0.0 1.0 0.00 0.20 0.08 98 1017.5
20260906075042 71 0 0.0 0.0 0.00 0.20 0.08 98 1017.5
20260906074557 71 0 0.0 0.0 0.00 0.20 0.08 97 1017.4
20260906074042 71 0 0.0 0.0 0.00 0.20 0.08 97 1017.5
20260906073542 71 0 0.0 0.0 0.00 0.20 0.08 97 1017.5
20260906073058 71 0 0.0 0.0 0.00 0.20 0.08 97 1017.4
20260906072543 71 0 0.0 0.0 0.00 0.20 0.08 97 1017.4
20260906072042 71 0 0.0 0.0 0.00 0.20 0.08 97 1017.3
20260906071559 71 0 0.0 0.0 0.00 0.20 0.08 97 1017.1
20260906071042 71 0 0.0 0.0 0.00 0.20 0.08 98 1017.1
20260906070541 72 0 0.0 0.0 0.00 0.20 0.08 98 1017.2
20260906070058 72 0 0.0 0.0 0.00 0.20 0.08 98 1017.1
20260906065541 72 0 0.0 0.0 0.00 0.20 0.08 97 1017.3
20260906065043 72 0 0.0 0.0 0.01 0.20 0.08 98 1017.3
20260906064554 72 0 0.0 0.0 0.01 0.20 0.08 97 1017.3
20260906064041 72 0 0.0 0.0 0.02 0.20 0.08 97 1017.3
20260906063541 72 0 0.0 0.0 0.03 0.20 0.08 97 1017.5
20260906063100 72 0 0.0 0.0 0.05 0.20 0.08 97 1017.7
20260906062540 72 0 0.0 0.0 0.05 0.20 0.08 97 1017.8
20260906062042 72 0 0.0 1.0 0.06 0.20 0.08 97 1017.9
20260906061626 72 0 0.0 2.0 0.07 0.20 0.08 97 1018.0
20260906061044 72 81 0.0 2.0 0.08 0.20 0.08 97 1017.8
20260906060543 72 81 0.0 1.0 0.08 0.20 0.08 97 1017.9
20260906060104 72 0 0.0 2.0 0.08 0.20 0.08 97 1018.1
20260906055541 72 73 0.0 2.0 0.07 0.19 0.07 97 1018.1
20260906055042 72 0 0.0 2.0 0.07 0.19 0.07 97 1018.2
20260906054556 72 344 0.0 2.0 0.07 0.19 0.07 97 1018.1
20260906054042 72 293 0.0 2.0 0.06 0.18 0.06 97 1017.8
20260906053542 72 205 1.0 2.0 0.05 0.17 0.05 97 1017.7
20260906053057 72 0 0.0 1.0 0.03 0.15 0.03 97 1017.9
20260906052542 72 0 0.0 1.0 0.03 0.15 0.03 97 1017.9
20260906052043 72 0 0.0 2.0 0.02 0.14 0.02 97 1018.1
20260906051604 72 0 0.0 4.0 0.01 0.13 0.01 97 1018.3
20260906051042 72 180 1.0 4.0 0.00 0.12 0.00 97 1018.6
20260906050544 72 215 0.0 4.0 0.00 0.12 0.00 97 1018.7
20260906050053 72 116 0.0 4.0 0.00 0.12 0.00 97 1018.8
20260906045542 72 292 1.0 4.0 0.00 0.12 0.12 97 1018.7
20260906045042 71 0 0.0 0.0 0.00 0.12 0.12 97 1018.0
20260906044559 71 0 0.0 0.0 0.00 0.12 0.12 96 1017.9
20260906044040 71 0 0.0 0.0 0.00 0.12 0.12 96 1017.8
20260906043541 71 0 0.0 0.0 0.00 0.12 0.12 96 1017.7
20260906043106 71 0 0.0 0.0 0.00 0.12 0.12 96 1017.8
20260906042541 71 0 0.0 0.0 0.00 0.12 0.12 96 1017.9
20260906042042 71 0 0.0 0.0 0.00 0.12 0.12 96 1017.9
20260906041557 71 0 0.0 0.0 0.00 0.12 0.12 96 1018.0
20260906041041 71 0 0.0 0.0 0.00 0.12 0.12 97 1018.1
20260906040542 71 0 0.0 0.0 0.00 0.12 0.12 97 1018.2
20260906040059 71 0 0.0 0.0 0.00 0.12 0.12 97 1018.4
20260906035542 71 0 0.0 0.0 0.00 0.12 0.12 96 1018.4
20260906035041 71 0 0.0 0.0 0.00 0.12 0.12 96 1018.4
20260906034605 71 0 0.0 0.0 0.00 0.12 0.12 96 1018.5
20260906034042 71 0 0.0 0.0 0.00 0.12 0.12 96 1018.5
20260906033542 71 0 0.0 0.0 0.00 0.12 0.12 96 1018.5
20260906033101 71 0 0.0 0.0 0.00 0.12 0.12 96 1018.3
20260906032541 71 0 0.0 0.0 0.00 0.12 0.12 96 1018.3
20260906032042 71 0 0.0 0.0 0.00 0.12 0.12 96 1018.1
20260906031556 71 0 0.0 0.0 0.00 0.12 0.12 96 1018.0
20260906031042 71 0 0.0 0.0 0.00 0.12 0.12 96 1018.1
20260906030543 72 0 0.0 0.0 0.00 0.12 0.12 95 1018.3
20260906030057 72 0 0.0 0.0 0.00 0.12 0.12 95 1018.5
20260906025542 72 0 0.0 0.0 0.00 0.12 0.12 95 1018.4
20260906025042 72 0 0.0 0.0 0.00 0.12 0.12 95 1018.5
20260906024558 72 0 0.0 0.0 0.00 0.12 0.12 95 1018.3
20260906024042 72 0 0.0 0.0 0.00 0.12 0.12 96 1018.2
20260906023542 72 0 0.0 0.0 0.00 0.12 0.12 95 1018.0
20260906023106 72 0 0.0 0.0 0.00 0.12 0.12 95 1017.9
20260906022543 72 0 0.0 0.0 0.00 0.12 0.12 95 1017.8
20260906022042 72 0 0.0 0.0 0.00 0.12 0.12 95 1017.7
20260906021555 72 0 0.0 0.0 0.00 0.12 0.12 95 1017.7
20260906021042 72 0 0.0 0.0 0.00 0.12 0.12 95 1017.4
20260906020544 72 0 0.0 0.0 0.00 0.12 0.12 95 1017.4
20260906015541 73 0 0.0 0.0 0.00 0.12 0.12 95 1017.3
20260906015042 73 0 0.0 0.0 0.00 0.12 0.12 95 1017.4
20260906014606 73 0 0.0 0.0 0.00 0.12 0.12 94 1017.2
20260906014041 73 0 0.0 0.0 0.00 0.12 0.12 94 1017.3
20260906013541 73 0 0.0 0.0 0.00 0.12 0.12 94 1017.2
20260906013100 73 0 0.0 0.0 0.00 0.12 0.12 94 1017.1
20260906012541 73 0 0.0 0.0 0.00 0.12 0.12 94 1017.1
20260906012042 73 0 0.0 0.0 0.00 0.12 0.12 94 1017.1
20260906011606 73 0 0.0 0.0 0.00 0.12 0.12 94 1017.0
20260906011042 73 0 0.0 0.0 0.00 0.12 0.12 94 1017.1
20260906010542 73 0 0.0 0.0 0.00 0.12 0.12 93 1017.3
20260906010108 73 0 0.0 0.0 0.00 0.12 0.12 93 1017.3
20260906005542 73 0 0.0 0.0 0.00 0.12 0.12 93 1017.3
20260906005041 74 0 0.0 0.0 0.00 0.12 0.12 93 1017.4
20260906004556 74 0 0.0 0.0 0.00 0.12 0.12 92 1017.3
20260906004042 74 0 0.0 0.0 0.00 0.12 0.12 92 1017.4
20260906003543 74 0 0.0 0.0 0.00 0.12 0.12 92 1017.3
20260906003104 74 0 0.0 0.0 0.00 0.12 0.12 92 1017.4
20260906002542 74 0 0.0 0.0 0.00 0.12 0.12 92 1017.4
20260906002042 74 0 0.0 0.0 0.00 0.12 0.12 91 1017.4
20260906001555 75 0 0.0 0.0 0.00 0.12 0.12 90 1017.3
20260906001041 75 0 0.0 1.0 0.00 0.12 0.12 90 1017.4
20260906000542 75 0 0.0 1.0 0.00 0.12 0.12 89 1017.4
20260906000101 75 0 0.0 1.0 0.00 0.12 0.12 88 1017.4
20260905235542 75 136 0.0 1.0 0.00 0.12 0.12 88 1017.4
20260905235042 76 0 0.0 2.0 0.00 0.12 0.12 87 1017.4
20260905234600 76 0 0.0 2.0 0.00 0.12 0.12 86 1017.4
20260905234042 76 0 0.0 2.0 0.00 0.12 0.12 86 1017.3
20260905233541 76 0 0.0 2.0 0.00 0.12 0.12 85 1017.1
20260905233111 77 0 0.0 2.0 0.00 0.12 0.12 85 1017.1
20260905232542 77 0 0.0 2.0 0.00 0.12 0.12 85 1017.0
20260905232043 78 0 0.0 2.0 0.00 0.12 0.12 85 1016.8
20260905231555 79 0 0.0 3.0 0.00 0.12 0.12 84 1017.0
20260905231044 79 0 0.0 3.0 0.00 0.12 0.12 83 1016.9
20260905230542 80 211 0.0 4.0 0.00 0.12 0.12 80 1017.1
20260905230100 80 319 0.0 4.0 0.00 0.12 0.12 81 1017.3
20260905225542 80 9 1.0 4.0 0.00 0.12 0.12 81 1017.2
20260905225042 79 173 1.0 3.0 0.00 0.12 0.12 85 1017.5
20260905224607 79 318 0.0 2.0 0.00 0.12 0.12 88 1017.5
20260905224041 79 318 0.0 2.0 0.00 0.12 0.12 88 1017.5
20260905223542 78 0 0.0 2.0 0.00 0.12 0.12 89 1017.4
20260905223101 78 0 0.0 2.0 0.00 0.12 0.12 90 1017.2
20260905222543 78 0 0.0 2.0 0.00 0.12 0.12 90 1017.2
20260905222042 78 0 1.0 2.0 0.00 0.12 0.12 89 1017.3
20260905221602 78 107 0.0 2.0 0.00 0.12 0.12 88 1017.1
20260905221042 78 0 0.0 2.0 0.00 0.12 0.12 88 1017.1
20260905220541 78 0 0.0 1.0 0.00 0.12 0.12 88 1017.2
20260905220100 78 62 0.0 5.0 0.00 0.12 0.12 89 1017.4
20260905215542 78 62 0.0 6.0 0.00 0.12 0.12 90 1017.5
20260905215042 78 0 1.0 6.0 0.00 0.12 0.12 90 1017.5
20260905214554 78 0 0.0 2.0 0.00 0.12 0.12 90 1017.4
20260905214042 78 113 0.0 2.0 0.00 0.12 0.12 90 1017.4
20260905213543 78 93 0.0 2.0 0.00 0.12 0.12 90 1017.5
20260905213110 78 0 0.0 2.0 0.00 0.12 0.12 90 1017.7
20260905212544 78 0 0.0 2.0 0.00 0.12 0.12 90 1017.7
20260905212042 78 92 0.0 1.0 0.00 0.12 0.12 90 1017.6
20260905211611 78 92 0.0 2.0 0.00 0.12 0.12 92 1017.5
20260905211045 78 0 0.0 3.0 0.00 0.12 0.12 92 1017.6
20260905210542 78 0 0.0 3.0 0.00 0.12 0.12 92 1017.6
20260905210114 78 135 1.0 3.0 0.00 0.12 0.12 93 1017.7
20260905205542 78 103 0.0 3.0 0.00 0.12 0.12 94 1017.8
20260905205043 77 71 0.0 2.0 0.00 0.12 0.12 94 1017.9
20260905204603 77 140 0.0 2.0 0.00 0.12 0.12 94 1018.0
20260905204042 77 254 0.0 5.0 0.00 0.12 0.12 94 1017.9
20260905203542 77 0 1.0 6.0 0.00 0.12 0.12 95 1017.9
20260905203102 76 136 2.0 6.0 0.00 0.12 0.12 96 1017.9
20260905202545 76 102 1.0 4.0 0.00 0.12 0.12 96 1018.0
20260905202042 76 0 0.0 2.0 0.00 0.12 0.12 95 1018.1
20260905201556 76 0 0.0 1.0 0.00 0.12 0.12 95 1018.1
20260905201040 76 0 0.0 2.0 0.00 0.12 0.12 95 1018.0
20260905200545 76 0 0.0 4.0 0.00 0.12 0.12 95 1018.1
20260905195543 76 144 0.0 3.0 0.00 0.12 0.12 96 1018.2
20260905195042 76 0 0.0 2.0 0.00 0.12 0.12 95 1018.3
20260905194601 76 130 0.0 1.0 0.00 0.12 0.12 95 1018.3
20260905194042 76 0 0.0 1.0 0.00 0.12 0.12 94 1018.4
20260905193543 76 0 0.0 1.0 0.00 0.12 0.12 95 1018.3
20260905193057 76 0 0.0 1.0 0.00 0.12 0.12 94 1018.3
20260905192542 75 0 0.0 1.0 0.07 0.12 0.12 94 1018.3
20260905192040 75 0 0.0 1.0 0.12 0.12 0.12 94 1018.3
20260905191603 75 0 0.0 1.0 0.12 0.12 0.12 93 1018.5
20260905191042 76 0 0.0 1.0 0.12 0.12 0.12 92 1018.7
20260905190543 76 0 0.0 1.0 0.12 0.12 0.12 93 1018.6
20260905190105 76 0 0.0 1.0 0.12 0.12 0.12 92 1018.8
20260905185542 77 0 0.0 3.0 0.12 0.12 0.12 92 1018.9
20260905185040 77 0 0.0 3.0 0.12 0.12 0.12 90 1019.0
20260905184558 78 0 1.0 3.0 0.12 0.12 0.12 89 1019.0
20260905184042 78 113 0.0 3.0 0.12 0.12 0.12 87 1018.9
20260905183541 80 0 0.0 5.0 0.12 0.12 0.12 84 1018.9
20260905183115 82 0 1.0 7.0 0.12 0.12 0.12 83 1018.8
20260905182542 84 36 2.0 4.0 0.03 0.03 0.03 78 1018.9
20260905182041 86 0 1.0 5.0 0.00 0.00 0.00 76 1018.9
20260905181559 87 338 2.0 5.0 0.00 0.00 0.00 72 1018.9
20260905181041 87 0 1.0 4.0 0.00 0.00 0.00 68 1018.9
20260905180541 87 90 0.0 2.0 0.00 0.00 0.00 76 1019.0
20260905180108 87 0 0.0 6.0 0.00 0.00 0.00 72 1019.1
20260905175547 87 325 0.0 6.0 0.00 0.00 0.00 75 1019.1
20260905175043 87 5 1.0 5.0 0.00 0.00 0.00 75 1019.0
20260905174559 86 22 1.0 5.0 0.00 0.00 0.00 72 1019.0
20260905174044 86 0 0.0 2.0 0.00 0.00 0.00 73 1019.0
20260905173542 87 0 0.0 2.0 0.00 0.00 0.00 72 1019.2
20260905173055 88 188 0.0 6.0 0.00 0.00 0.00 68 1019.2
20260905172543 88 40 0.0 6.0 0.00 0.00 0.00 67 1019.2
20260905172041 89 12 2.0 6.0 0.00 0.00 0.00 65 1019.1
20260905171557 89 318 0.0 4.0 0.00 0.00 0.00 65 1019.1
20260905171041 90 101 1.0 4.0 0.00 0.00 0.00 64 1019.2
20260905170538 89 99 1.0 3.0 0.00 0.00 0.00 66 1019.3
20260905170100 89 0 0.0 3.0 0.00 0.00 0.00 69 1019.4
20260905165538 88 57 0.0 3.0 0.00 0.00 0.00 70 1019.4
20260905165038 88 94 1.0 5.0 0.00 0.00 0.00 68 1019.6
20260905164559 89 290 1.0 5.0 0.00 0.00 0.00 68 1019.7
20260905164037 89 258 2.0 4.0 0.00 0.00 0.00 68 1019.7
20260905163541 89 47 1.0 5.0 0.00 0.00 0.00 68 1019.7
20260905163108 88 0 1.0 6.0 0.00 0.00 0.00 68 1019.6
20260905162537 88 216 1.0 6.0 0.00 0.00 0.00 67 1019.7
20260905162038 88 33 0.0 4.0 0.00 0.00 0.00 71 1019.8
20260905161557 89 28 1.0 6.0 0.00 0.00 0.00 65 1019.9
20260905161038 89 49 2.0 6.0 0.00 0.00 0.00 67 1019.9
20260905160538 89 20 1.0 4.0 0.00 0.00 0.00 67 1019.8
20260905160059 89 334 0.0 5.0 0.00 0.00 0.00 69 1019.9
20260905155538 88 76 2.0 5.0 0.00 0.00 0.00 67 1019.9
20260905155040 88 71 0.0 4.0 0.00 0.00 0.00 71 1019.8
20260905154601 88 0 1.0 4.0 0.00 0.00 0.00 68 1019.9
20260905154040 87 111 0.0 3.0 0.00 0.00 0.00 68 1019.8
20260905153538 87 0 1.0 3.0 0.00 0.00 0.00 73 1019.8
20260905153111 86 67 1.0 3.0 0.00 0.00 0.00 70 1019.9
20260905152540 86 0 0.0 3.0 0.00 0.00 0.00 73 1020.0
20260905152041 85 315 0.0 4.0 0.00 0.00 0.00 77 1020.0
20260905151613 84 0 1.0 4.0 0.00 0.00 0.00 76 1020.1
20260905151040 84 0 0.0 0.0 0.00 0.00 0.00 80 1020.1
20260905150539 83 0 0.0 0.0 0.00 0.00 0.00 81 1020.2
20260905150100 81 0 0.0 0.0 0.00 0.00 0.00 85 1020.1
20260905145540 81 0 0.0 0.0 0.00 0.00 0.00 86 1020.1
20260905145040 80 0 0.0 0.0 0.00 0.00 0.00 89 1020.2
20260905144559 80 0 0.0 0.0 0.00 0.00 0.00 89 1020.1
20260905144039 79 0 0.0 0.0 0.00 0.00 0.00 91 1020.2
20260905143540 78 0 0.0 0.0 0.00 0.00 0.00 92 1020.1
20260905143100 78 0 0.0 0.0 0.00 0.00 0.00 93 1020.2
20260905142541 77 0 0.0 0.0 0.00 0.00 0.00 93 1020.1
20260905142039 77 0 0.0 0.0 0.00 0.00 0.00 93 1020.2
20260905141604 77 0 0.0 0.0 0.00 0.00 0.00 95 1020.2
20260905141040 76 0 0.0 0.0 0.00 0.00 0.00 95 1020.2
20260905140540 76 0 0.0 0.0 0.00 0.00 0.00 95 1020.1
20260905140108 75 0 0.0 0.0 0.00 0.00 0.00 96 1020.2
20260905135540 75 0 0.0 0.0 0.00 0.00 0.00 97 1020.2
20260905135040 74 0 0.0 0.0 0.00 0.00 0.00 97 1020.3
20260905134603 74 0 0.0 0.0 0.00 0.00 0.00 97 1020.3
20260905134040 73 0 0.0 0.0 0.00 0.00 0.00 98 1020.3
20260905133541 73 0 0.0 0.0 0.00 0.00 0.00 98 1020.2
20260905133059 72 0 0.0 0.0 0.00 0.00 0.00 98 1020.3
20260905132539 72 0 0.0 0.0 0.00 0.00 0.00 98 1020.3
20260905132045 72 0 0.0 0.0 0.00 0.00 0.00 98 1020.5
20260905131613 71 0 0.0 0.0 0.00 0.00 0.00 97 1020.4
20260905131040 71 0 0.0 0.0 0.00 0.00 0.00 97 1020.4
20260905130543 71 0 0.0 0.0 0.00 0.00 0.00 97 1020.5
20260905130100 71 0 0.0 0.0 0.00 0.00 0.00 97 1020.5
20260905125537 70 0 0.0 0.0 0.00 0.00 0.00 97 1020.6
20260905125038 70 0 0.0 0.0 0.00 0.00 0.00 97 1020.6
20260905124606 70 0 0.0 0.0 0.00 0.00 0.00 98 1020.6
20260905124038 70 0 0.0 0.0 0.00 0.00 0.00 98 1020.5
20260905123538 70 0 0.0 0.0 0.00 0.00 0.00 98 1020.4
20260905123100 69 0 0.0 0.0 0.00 0.00 0.00 98 1020.5
20260905122541 69 0 0.0 0.0 0.00 0.00 0.00 98 1020.4
20260905122038 69 0 0.0 0.0 0.00 0.00 0.00 98 1020.3
20260905121607 69 0 0.0 0.0 0.00 0.00 0.00 98 1020.4
20260905121039 68 0 0.0 0.0 0.00 0.00 0.00 97 1020.2
20260905120539 68 0 0.0 0.0 0.00 0.00 0.00 97 1020.2
20260905120104 68 0 0.0 0.0 0.00 0.00 0.00 97 1020.1
20260905115539 68 0 0.0 0.0 0.00 0.00 0.00 97 1020.0
20260905115039 68 0 0.0 0.0 0.00 0.00 0.00 97 1020.0
20260905114600 68 0 0.0 0.0 0.00 0.00 0.00 97 1020.1
20260905114042 68 0 0.0 0.0 0.00 0.00 0.00 97 1019.9
20260905113538 68 0 0.0 0.0 0.00 0.00 0.00 97 1019.9
20260905113100 68 0 0.0 0.0 0.00 0.00 0.00 97 1019.8
20260905112541 68 0 0.0 0.0 0.00 0.00 0.00 97 1019.8